Location: Crocus Hill
(18.2167°N, 63.0667°W)
Time: 17:54:02
(UTC+00:00)

CZ-3 R/B - Pass Details

Date: 26 January 2020
Orbit: 346 x 10269 km, 28.4° (Epoch: 23 February)

Event Time Altitude Azimuth Distance (km) Brightness Sun altitude
Exits shadow 08:29:49 42° 298° (WNW) 4,896 4.5 -32.2°
Maximum altitude 08:37:46 57° 350° (N) 2,962 3.7 -30.3°
Drops below altitude 10° 08:46:31 10° 69° (ENE) 3,300 4.9 -28.3°
Sets 08:48:22 0° 75° (ENE) 3,831 5.5 -27.9°
